Regional Weather Roundup
Issued by NWS

Home | Current Version | Previous Version | Graphics & Text | Print | Product List | Glossary On
Versions: 1 2 3 4 5 6 7 8 9 10 11 12 13 14 15 16 17 18 19 20 21 22 23 24 25 26 27 28 29 30 31 32 33 34 35 36 37 38 39 40 41 42 43 44 45 46 47 48 49 50
000
ASUS43 KMPX 210310
RWRMN
WEATHER ROUNDUP FOR MINNESOTA
NATIONAL WEATHER SERVICE TWIN CITIES/CHANHASSEN MN
900 PM CST MON NOV 20 2017


NOTE: "FAIR" INDICATES FEW OR NO CLOUDS BELOW 12,000 FEET WITH NO
SIGNIFICANT WEATHER AND/OR OBSTRUCTIONS TO VISIBILITY. N/A MEANS
CURRENT SKY AND/OR WEATHER CONDITIONS ARE NOT AVAILABLE.

MNZ060>063-068>070-210400-
   Twin Cities Metro

CITY           SKY/WX    TMP DP  RH WIND       PRES   REMARKS
TWIN CITIES    PTCLDY    43  28  55 W10       29.48R
ST PAUL        CLEAR     43  27  53 W6        29.48S
CRYSTAL        CLEAR     44  24  45 SW8       29.46R
BLAINE         MOCLDY    46  28  49 SW9       29.45S
LAKEVILLE      CLEAR     41  28  60 W10G16    29.49S
EDEN PRAIRIE   CLEAR     42  27  55 W10       29.48R
SOUTH ST PAUL  CLEAR     44  27  50 W10       29.47S
LAKE ELMO      FAIR      41  30  65 SW9       29.47S
$$
MNZ001>005-007-008-013>017-022>024-027-028-210400-
   Northwest Minnesota

CITY           SKY/WX    TMP DP  RH WIND       PRES   REMARKS
BEMIDJI        CLOUDY    33  27  77 W28G39    29.37R WCI  20
HALLOCK        CLOUDY    25  19  80 NW25G35   29.47R WCI   9
ROSEAU         CLOUDY    25  16  68 NW28G43   29.37R WCI   8
WARROAD        CLOUDY    25  16  68 W25G37    29.36R WCI   9
THIEF RVR FALL CLOUDY    25  19  78 NW32G39   29.46R WCI   8
CROOKSTON      CLOUDY    28  19  69 NW26G35   29.52R WCI  13
FOSSTON        CLOUDY    28  19  69 W25G39    29.48R WCI  14
DETROIT LAKES  CLOUDY    34  28  80 W18G28    29.49R WCI  23
MOORHEAD       CLEAR     34  23  64 W26       29.57R WCI  21
PARK RAPIDS    CLOUDY    36  27  69 NW28G40   29.41R
MAHNOMEN       CLOUDY    32  24  74 NW25G33   29.48R WCI  18
$$
MNZ006-009>011-018-025>026-210400-
   North Central Minnesota

CITY           SKY/WX    TMP DP  RH WIND       PRES   REMARKS
BAUDETTE       CLOUDY    27  19  72 W29G46    29.30R WCI  11
FLAG ISLAND    CLOUDY    25  18  74 W31G43    29.29R WCI   8
INTL FALLS     CLOUDY    37  29  72 NW28G39   29.20R
WASKISH        CLOUDY    30  27  86 W22G41    29.35R WCI  17
BIG FORK       CLOUDY    37  30  75 W15G29    29.26S
LONGVILLE      CLOUDY    39  30  70 W16G25    29.35S
GRAND RAPIDS   CLOUDY    40  30  67 W18G25    29.32R
CRANE LAKE     CLOUDY    37  28  70 W5        29.20F
ORR            CLOUDY    37  27  65 W17G28    29.19S
COOK           CLOUDY    39  28  65 W17G23    29.22S
WALKER         MOCLDY    35  27  71 W20G33    29.37R WCI  24
$$
MNZ012-019>021-037-210400-
   Northeast Minnesota

CITY           SKY/WX    TMP DP  RH WIND       PRES   REMARKS
DULUTH         CLOUDY    34  27  75 W16       29.27F WCI  24
ELY            PTCLDY    34  27  75 SW7       29.19F WCI  28
HIBBING        CLEAR     36  26  67 W8        29.25F
EVELETH        CLEAR     32  25  74 W9        29.25S WCI  24
DULUTH HARBOR  CLOUDY    37  30  75 SW15      29.31S
TWO HARBORS    CLOUDY    37  28  70 SW8       29.24F
SILVER BAY     CLOUDY    28  28 100 SW3       29.21F
GRAND MARAIS     N/A     36  30  79 W8        29.20F
G MARAIS ARPRT MOCLDY    28  25  86 SW7       29.16F WCI  21
$$
MNZ029>031-032-039>041-046>048-054>057-064-210400-
   West Central Minnesota

CITY           SKY/WX    TMP DP  RH WIND       PRES   REMARKS
FERGUS FALLS   CLOUDY    36  27  69 NW26G32   29.55R
WHEATON        CLOUDY    37  19  48 W20G30    29.60R
MORRIS         CLEAR     39  28  65 NW23      29.55R
ALEXANDRIA     CLEAR     39  28  64 NW23G37   29.51R
ELBOW LAKE     FAIR      36  27  70 NW21G30   29.54R
WADENA         CLOUDY    36  28  75 W17G28    29.45R
GLENWOOD       CLEAR     39  28  65 NW28G35   29.51R
APPLETON       CLEAR     43  28  56 NW26      29.57R
BENSON         CLEAR     41  28  60 N16       29.56R
ORTONVILLE     CLEAR     41  27  56 MISG      29.59R
MADISON        CLEAR     45  27  49 NW13G18   29.59R
WILLMAR        FAIR      43  28  56 W13       29.54R
$$
MNZ033>034-036-042>043-049>051-058-059-210400-
   Central Minnesota

CITY           SKY/WX    TMP DP  RH WIND       PRES   REMARKS
ST CLOUD       CLEAR     44  28  53 W17G24    29.45R
SAUK CENTRE    FAIR      40  29  65 W22G29    29.49R
PAYNESVILLE    CLEAR     42  30  62 W17G26    29.50R
AITKIN         CLOUDY    39  28  65 W13G25    29.35R
PINE RIVER     CLOUDY    37  28  70 W12G26    29.44R
BRAINERD       CLOUDY    42  29  59 W12G32    29.41R
STAPLES        CLOUDY    37  28  70 W21G30    29.44R
LONG PRAIRIE   FAIR      41  28  60 W20G26    29.46R
LITTLE FALLS   CLOUDY    41  21  45 W13G22    29.45R
LITCHFIELD     CLEAR     43  28  56 W9        29.51R
BUFFALO        CLEAR     43  27  52 W14       29.49R
MAPLE LAKE     CLEAR     44  30  57 W9G21     29.48R
HUTCHINSON     CLEAR     39  29  66 W12       29.52R
$$
MNZ037-044-045-052-053-210400-
   East Central Minnesota

CITY           SKY/WX    TMP DP  RH WIND       PRES   REMARKS
PRINCETON      CLOUDY    39  28  65 W9        29.44R
MORA           CLOUDY    36  28  75 W7        29.41R
CAMBRIDGE      CLOUDY    45  28  53 SW8       29.42F
RUSH CITY      CLOUDY    40  28  63 SW8       29.41S
MOOSE LAKE     CLOUDY    32  28  86 SW6       29.32F WCI  26
HINCKLEY       FAIR      36  30  80 SW9       29.38S
CLOQUET        CLOUDY    36  27  69 SW8       29.29F
MCGREGOR       CLOUDY    39  28  65 W13G20    29.35R
$$
MNZ071>073-080-081-089-090-097-098-210400-
   Southwest Minnesota

CITY           SKY/WX    TMP DP  RH WIND       PRES   REMARKS
MONTEVIDEO     CLEAR     43  27  52 N13G21    29.56R
GRANITE FALLS  CLEAR     43  28  56 W13       29.58R
CANBY          CLEAR     45  26  47 W17G23    29.60R
MARSHALL       CLEAR     44  25  47 NW18      29.58R
REDWOOD FALLS  CLEAR     43  24  47 W15G25    29.55R
OLIVIA         CLEAR     41  28  60 W10       29.54R
PIPESTONE      CLEAR     36  23  60 NW7       29.61R
WINDOM         CLEAR     39  21  48 W12       29.58R
WORTHINGTON    CLEAR     38  24  57 W16       29.59S
JACKSON        PTCLDY    41  27  56 CALM      29.59R
SLAYTON        CLEAR     40  26  56 W13       29.60R
$$
MNZ065>067-074>077-082>085-091>093-210400-
   South Central Minnesota

CITY           SKY/WX    TMP DP  RH WIND       PRES   REMARKS
MANKATO        PTCLDY    41  27  57 W12       29.54R
NEW ULM        CLEAR     39  25  56 CALM      29.54R
ST JAMES       PTCLDY    43  27  52 W14       29.56R
FAIRMONT       PTCLDY    43  28  55 W14       29.57R
GLENCOE        CLEAR     40  29  65 W9        29.50R
FARIBAULT      PTCLDY    39  28  65 SW7       29.52S
OWATONNA       CLOUDY    41  30  65 SW13      29.53S
WASECA         MOCLDY    36  28  75 SW10      29.55S
ALBERT LEA     PTCLDY    45  27  49 W10       29.56R
$$
MNZ078>079-086>088-094>096-210400-
   Southeast Minnesota

CITY           SKY/WX    TMP DP  RH WIND       PRES   REMARKS
ROCHESTER      CLEAR     42  30  62 W16       29.53R
RED WING       PTCLDY    45  25  45 W8        29.49R
STANTON        PTCLDY    42  29  61 SW9       29.49R
DODGE CENTER   PTCLDY    39  28  65 W14       29.52S
WINONA         CLEAR     48  30  49 W8G16     29.51S
AUSTIN         CLOUDY    43  28  56 W10G16    29.55R
PRESTON        CLEAR     44  28  54 SW15G22   29.54R
$$
ABBREVIATIONS USED IN REMARKS
   TC - TEMPERATURES IN CELSIUS
  WCI - WIND CHILL INDEX
   HX - HEAT INDEX
  VSB - VISIBILITY
$$




USA.gov is the U.S. government's official web portal to all federal, state and local government web resources and services.